Date String (YYYY-MM-DD hh:mm:ss) UTC,Instrument flags,Ambient pressure (hPa),Sample flow (lpm),Bypass flow (lpm),Sample temperature (°C),Ambient temperature (°C),ASC tube jacket temperature (°C),LED temperature (°C),Box temperature (°C),Sample RH (%),Span deviation,Mass concentration (μg/m³),Mass concentration (μg/m³),Mass concentration (μg/m³)
DateTimeUTC,F1_M11,P_M11,Q1_M11,Q2_M11,T1_M11,T2_M11,T3_M11,T4_M11,T5_M11,U1_M11,ZSPAN_M11,X0_M11,X2_M11,X1_M11
2022-07-15 18:00:00,,0831.7,5.01,0.00,29.2,27.6,00.0,37.9,31.1,30.6,0000.0,0015.33,0005.04,0004.16
2022-07-15 18:01:00,,0831.7,4.99,0.00,29.3,27.9,00.0,37.9,31.2,30.6,0000.0,0014.59,0005.06,0004.16
2022-07-15 18:02:00,,0831.7,4.99,0.00,29.3,28.0,00.0,38.0,31.3,30.5,0000.0,0014.83,0005.03,0004.14
2022-07-15 18:03:00,,0831.7,5.00,0.00,29.3,28.0,00.0,38.0,31.3,30.7,0000.0,0013.72,0004.99,0004.12
2022-07-15 18:04:00,,0831.7,5.00,0.00,29.3,27.5,00.0,37.9,31.3,30.3,0000.0,0014.19,0004.97,0004.11
2022-07-15 18:05:00,,0831.7,5.00,0.00,29.3,27.1,00.0,37.9,31.2,30.4,0000.0,0014.25,0004.92,0004.09
2022-07-15 18:06:00,,0831.7,5.00,0.00,29.3,27.1,00.0,37.9,31.1,30.5,0000.0,0013.55,0004.89,0004.10
2022-07-15 18:07:00,,0831.7,5.00,0.00,29.3,27.2,00.0,37.9,31.1,30.3,0000.0,0013.27,0004.86,0004.10
2022-07-15 18:08:00,,0831.6,5.00,0.00,29.3,27.4,00.0,37.9,31.1,30.6,0000.0,0012.29,0004.87,0004.10
2022-07-15 18:09:00,,0831.6,4.99,0.00,29.3,27.7,00.0,37.9,31.1,30.9,0000.0,0011.91,0004.93,0004.09
2022-07-15 18:10:00,,0831.6,5.00,0.00,29.3,27.9,00.0,38.0,31.2,31.1,0000.0,0012.40,0004.97,0004.08
2022-07-15 18:11:00,,0831.6,5.00,0.00,29.3,27.9,00.0,37.9,31.3,30.3,0000.0,0012.91,0005.00,0004.08
2022-07-15 18:12:00,,0831.6,5.01,0.00,29.3,27.3,00.0,37.9,31.2,30.2,0000.0,0015.76,0004.98,0004.08
2022-07-15 18:13:00,,0831.5,5.00,0.00,29.3,27.0,00.0,37.9,31.2,30.3,0000.0,0016.35,0004.96,0004.09
2022-07-15 18:14:00,,0831.5,5.00,0.00,29.3,27.0,00.0,37.9,31.1,30.3,0000.0,0016.05,0004.99,0004.09
2022-07-15 18:15:00,,0831.5,4.99,0.00,29.2,27.1,00.0,37.9,31.0,30.2,0000.0,0014.93,0005.00,0004.09
2022-07-15 18:16:00,,0831.5,5.00,0.00,29.2,27.3,00.0,37.9,31.0,29.1,0000.0,0014.51,0004.98,0004.07
2022-07-15 18:17:00,,0831.6,5.00,0.00,29.2,27.6,00.0,37.9,31.1,29.6,0000.0,0014.68,0005.00,0004.05
2022-07-15 18:18:00,,0831.5,4.99,0.00,29.2,27.8,00.0,37.9,31.2,29.5,0000.0,0014.62,0004.96,0004.02
2022-07-15 18:19:00,,0831.6,5.01,0.00,29.3,28.0,00.0,37.9,31.2,29.5,0000.0,0014.60,0004.94,0003.99
2022-07-15 18:20:00,,0831.5,4.99,0.00,29.3,27.7,00.0,37.9,31.3,29.8,0000.0,0014.59,0004.90,0003.98
2022-07-15 18:21:00,,0831.5,5.00,0.00,29.3,27.2,00.0,37.9,31.2,30.2,0000.0,0014.12,0004.81,0003.96
2022-07-15 18:22:00,,0831.5,5.00,0.00,29.3,27.0,00.0,37.8,31.1,30.4,0000.0,0013.98,0004.76,0003.95
2022-07-15 18:23:00,,0831.5,5.01,0.00,29.2,27.1,00.0,37.9,31.0,29.7,0000.0,0011.83,0004.78,0003.94
2022-07-15 18:24:00,,0831.5,5.00,0.00,29.2,27.3,00.0,37.9,31.0,30.6,0000.0,0010.61,0004.78,0003.93
2022-07-15 18:25:00,,0831.5,4.99,0.00,29.2,27.5,00.0,37.9,31.0,29.8,0000.0,0010.58,0004.71,0003.91
2022-07-15 18:26:00,,0831.5,5.01,0.00,29.2,27.7,00.0,37.9,31.1,29.3,0000.0,0010.34,0004.65,0003.89
2022-07-15 18:27:00,,0831.5,4.99,0.00,29.2,27.9,00.0,37.9,31.2,29.3,0000.0,0010.13,0004.61,0003.87
2022-07-15 18:28:00,,0831.5,5.01,0.00,29.3,27.9,00.0,37.9,31.3,28.9,0000.0,0010.12,0004.56,0003.87
2022-07-15 18:29:00,,0831.5,4.99,0.00,29.3,27.4,00.0,37.9,31.2,28.5,0000.0,0010.12,0004.55,0003.86
2022-07-15 18:30:00,,0831.5,5.01,0.00,29.3,27.0,00.0,37.8,31.1,28.5,0000.0,0010.11,0004.53,0003.86
2022-07-15 18:31:00,,0831.5,5.00,0.00,29.2,27.0,00.0,37.8,31.1,28.8,0000.0,0009.81,0004.49,0003.85
2022-07-15 18:32:00,,0831.5,5.01,0.00,29.2,27.2,00.0,37.8,31.0,28.5,0000.0,0010.05,0004.46,0003.83
2022-07-15 18:33:00,,0831.5,4.99,0.00,29.2,27.4,00.0,37.9,31.0,28.8,0000.0,0010.03,0004.44,0003.82
2022-07-15 18:34:00,,0831.5,4.99,0.00,29.2,27.6,00.0,37.9,31.1,29.2,0000.0,0010.15,0004.41,0003.81
2022-07-15 18:35:00,,0831.5,5.01,0.00,29.2,27.8,00.0,37.9,31.1,29.1,0000.0,0009.73,0004.39,0003.80
2022-07-15 18:36:00,,0831.5,5.00,0.00,29.3,28.0,00.0,37.9,31.2,27.8,0000.0,0009.36,0004.37,0003.78
2022-07-15 18:37:00,,0831.5,5.00,0.00,29.3,28.0,00.0,37.9,31.3,27.6,0000.0,0009.35,0004.37,0003.77
2022-07-15 18:38:00,,0831.5,5.00,0.00,29.3,27.5,00.0,37.9,31.2,28.1,0000.0,0009.74,0004.40,0003.75
2022-07-15 18:39:00,,0831.5,5.00,0.00,29.3,27.1,00.0,37.8,31.2,27.8,0000.0,0010.18,0004.43,0003.74
2022-07-15 18:40:00,,0831.5,5.00,0.00,29.2,27.0,00.0,37.8,31.1,26.7,0000.0,0009.97,0004.40,0003.72
2022-07-15 18:41:00,,0831.5,5.00,0.00,29.2,27.1,00.0,37.8,31.0,27.2,0000.0,0009.91,0004.39,0003.69
2022-07-15 18:42:00,,0831.6,5.01,0.00,29.2,27.3,00.0,37.9,31.0,27.2,0000.0,0009.85,0004.38,0003.67
2022-07-15 18:43:00,,0831.5,4.99,0.00,29.2,27.5,00.0,37.9,31.1,27.5,0000.0,0009.47,0004.39,0003.66
2022-07-15 18:44:00,,0831.5,4.99,0.00,29.2,27.7,00.0,37.9,31.1,27.9,0000.0,0009.37,0004.39,0003.66
2022-07-15 18:45:00,,0831.5,5.01,0.00,29.3,28.0,00.0,37.9,31.2,28.7,0000.0,0009.25,0004.35,0003.65
2022-07-15 18:46:00,,0831.5,4.99,0.00,29.3,28.0,00.0,37.9,31.3,29.2,0000.0,0009.17,0004.31,0003.66
2022-07-15 18:47:00,,0831.5,5.00,0.00,29.3,27.5,00.0,37.9,31.2,29.3,0000.0,0009.79,0004.34,0003.68
2022-07-15 18:48:00,,0831.4,5.00,0.00,29.3,27.0,00.0,37.8,31.2,30.0,0000.0,0010.10,0004.38,0003.70
2022-07-15 18:49:00,,0831.4,5.00,0.00,29.2,27.0,00.0,37.8,31.1,29.1,0000.0,0010.06,0004.44,0003.72
2022-07-15 18:50:00,,0831.4,5.00,0.00,29.2,27.1,00.0,37.8,31.0,29.4,0000.0,0009.62,0004.46,0003.74
2022-07-15 18:51:00,,0831.4,5.00,0.00,29.2,27.3,00.0,37.9,31.0,29.4,0000.0,0009.77,0004.53,0003.77
2022-07-15 18:52:00,,0831.3,5.00,0.00,29.2,27.5,00.0,37.9,31.1,29.2,0000.0,0009.83,0004.58,0003.82
2022-07-15 18:53:00,,0831.3,5.00,0.00,29.2,27.7,00.0,37.9,31.1,29.0,0000.0,0009.85,0004.62,0003.85
2022-07-15 18:54:00,,0831.3,5.01,0.00,29.2,27.9,00.0,37.9,31.2,29.1,0000.0,0010.62,0004.67,0003.89
2022-07-15 18:55:00,,0831.3,5.01,0.00,29.3,28.0,00.0,37.9,31.3,29.4,0000.0,0011.48,0004.75,0003.92
2022-07-15 18:56:00,,0831.3,4.99,0.00,29.3,27.6,00.0,37.9,31.2,29.0,0000.0,0011.85,0004.80,0003.94
2022-07-15 18:57:00,,0831.3,5.00,0.00,29.3,27.1,00.0,37.8,31.1,28.8,0000.0,0012.01,0004.84,0003.95
2022-07-15 18:58:00,,0831.2,5.00,0.00,29.2,27.0,00.0,37.8,31.1,29.1,0000.0,0011.68,0004.85,0003.96
2022-07-15 18:59:00,,0831.2,5.00,0.00,29.2,27.1,00.0,37.8,31.0,30.0,0000.0,0011.93,0004.82,0003.96
